Location: Unspecified
(51.5147°N, 7.4673°E)
Time: 22:19:27
(UTC+01:00)

Explorer 7 - Pass Details

Date: 25 February 2026
Orbit: 430 x 542 km, 50.2° (Epoch: 8 March)

Event Time Altitude Azimuth Distance (km) Brightness Sun altitude
Rises 17:44:52 0° 280° (W) 2,466 11.5 1.9°
Reaches altitude 10° 17:47:07 10° 270° (W) 1,609 11.0 1.6°
Maximum altitude 17:50:22 31° 207° (SSW) 853 8.4 1.1°
Drops below altitude 10° 17:53:42 10° 144° (SE) 1,662 9.1 0.6°
Sets 17:56:04 0° 134° (SE) 2,563 9.9 0.2°
